When you browse on this site, cookies collect data to enhance your experience and personalize the content and advertising you see.
Visit our Privacy Policy to learn more. By continuing to use the site, you agree to this use of cookies and data.
  • In United Kingdom
  • List of Countries
  • For 7 days
  • Water Temperature
  • Weather Map
  • Weather Widgets
  • user-avatar
    Login

    Hourly Weather Plymouth

    Today, 18 September, Wednesday

    Time Temperature Precipitation Wind Pressure Humidity
    00:00 +10°C° 0 mm 5 mps 768 mmHg 91%
    01:00 +9°C° 0 mm 5 mps 768 mmHg 91%
    02:00 +9°C° 0 mm 5 mps 768 mmHg 91%
    03:00 +9°C° 0 mm 5 mps 768 mmHg 91%
    04:00 +9°C° 0 mm 5 mps 768 mmHg 92%
    05:00 +9°C° 0 mm 5 mps 769 mmHg 93%
    06:00 +9°C° 0 mm 5 mps 769 mmHg 93%
    07:00 +12°C° 0 mm 5 mps 769 mmHg 88%
    08:00 +13°C° 0 mm 5 mps 769 mmHg 82%
    09:00 +14°C° 0 mm 5 mps 770 mmHg 76%
    10:00 +15°C° 0 mm 5 mps 770 mmHg 70%
    11:00 +16°C° 0 mm 5 mps 770 mmHg 65%
    12:00 +17°C° 0 mm 5 mps 770 mmHg 59%
    13:00 +18°C° 0 mm 4 mps 770 mmHg 59%
    14:00 +19°C° 0 mm 4 mps 770 mmHg 59%
    15:00 +19°C° 0 mm 4 mps 770 mmHg 59%
    16:00 +18°C° 0 mm 3 mps 770 mmHg 65%
    17:00 +17°C° 0 mm 3 mps 769 mmHg 72%
    18:00 +14°C° 0 mm 3 mps 769 mmHg 79%
    19:00 +13°C° 0 mm 3 mps 770 mmHg 80%
    20:00 +12°C° 0 mm 3 mps 770 mmHg 81%
    21:00 +11°C° 0 mm 3 mps 770 mmHg 82%
    22:00 +11°C° 0 mm 3 mps 770 mmHg 83%
    23:00 +11°C° 0 mm 3 mps 770 mmHg 83%

    Tomorrow, 19 September, Thursday

    Time Temperature Precipitation Wind Pressure Humidity
    00:00 +11°C° 0 mm 3 mps 770 mmHg 83%
    01:00 +10°C° 0 mm 3 mps 770 mmHg 84%
    02:00 +10°C° 0 mm 3 mps 770 mmHg 85%
    03:00 +10°C° 0 mm 3 mps 770 mmHg 86%
    04:00 +10°C° 0 mm 3 mps 770 mmHg 86%
    05:00 +10°C° 0 mm 3 mps 770 mmHg 86%
    06:00 +10°C° 0 mm 3 mps 770 mmHg 86%
    07:00 +12°C° 0 mm 4 mps 770 mmHg 82%
    08:00 +14°C° 0 mm 4 mps 770 mmHg 77%
    09:00 +15°C° 0 mm 4 mps 771 mmHg 73%
    10:00 +17°C° 0 mm 4 mps 771 mmHg 70%
    11:00 +17°C° 0 mm 5 mps 771 mmHg 67%
    12:00 +19°C° 0 mm 5 mps 770 mmHg 65%
    13:00 +19°C° 0 mm 5 mps 770 mmHg 65%
    14:00 +19°C° 0 mm 5 mps 770 mmHg 65%
    15:00 +19°C° 0 mm 5 mps 770 mmHg 65%
    16:00 +17°C° 0 mm 5 mps 769 mmHg 71%
    17:00 +15°C° 0 mm 4 mps 769 mmHg 77%
    18:00 +14°C° 0 mm 4 mps 769 mmHg 83%
    19:00 +13°C° 0 mm 4 mps 769 mmHg 86%
    20:00 +12°C° 0 mm 5 mps 769 mmHg 89%
    21:00 +12°C° 0 mm 5 mps 769 mmHg 92%
    22:00 +12°C° 0 mm 5 mps 769 mmHg 93%
    23:00 +11°C° 0 mm 6 mps 768 mmHg 94%

    Day after tomorrow, 20 September, Friday

    Time Temperature Precipitation Wind Pressure Humidity
    00:00 +11°C° 0 mm 6 mps 768 mmHg 95%
    01:00 +11°C° 0 mm 6 mps 767 mmHg 94%
    02:00 +11°C° 0 mm 7 mps 767 mmHg 94%
    03:00 +11°C° 0 mm 7 mps 767 mmHg 93%
    04:00 +11°C° 0 mm 8 mps 766 mmHg 92%
    05:00 +11°C° 0 mm 8 mps 765 mmHg 90%
    06:00 +11°C° 0 mm 8 mps 765 mmHg 89%
    07:00 +12°C° 0 mm 9 mps 765 mmHg 82%
    08:00 +13°C° 0 mm 9 mps 765 mmHg 76%
    09:00 +14°C° 0 mm 10 mps 764 mmHg 70%
    10:00 +16°C° 0 mm 10 mps 764 mmHg 67%
    11:00 +17°C° 0 mm 11 mps 763 mmHg 64%
    12:00 +17°C° 0 mm 11 mps 762 mmHg 61%
    13:00 +17°C° 0 mm 11 mps 762 mmHg 61%
    14:00 +17°C° 0 mm 11 mps 761 mmHg 61%
    15:00 +16°C° 0 mm 11 mps 760 mmHg 61%
    16:00 +16°C° 0 mm 11 mps 760 mmHg 62%
    17:00 +14°C° 0 mm 11 mps 759 mmHg 63%
    18:00 +14°C° 0 mm 10 mps 758 mmHg 65%
    19:00 +14°C° 0 mm 10 mps 758 mmHg 65%
    20:00 +14°C° 0 mm 10 mps 758 mmHg 65%
    21:00 +16°C° 0 mm 10 mps 757 mmHg 65%
    22:00 +16°C° 0 mm 9 mps 757 mmHg 66%
    23:00 +16°C° 0 mm 9 mps 756 mmHg 66%

    21 September, Saturday

    Time Temperature Precipitation Wind Pressure Humidity
    00:00 +16°C° 0 mm 9 mps 755 mmHg 66%
    01:00 +16°C° 0 mm 8 mps 755 mmHg 69%
    02:00 +15°C° 0 mm 7 mps 755 mmHg 72%
    03:00 +15°C° 0 mm 6 mps 754 mmHg 75%
    04:00 +15°C° 0 mm 7 mps 754 mmHg 77%
    05:00 +15°C° 0 mm 7 mps 753 mmHg 78%
    06:00 +14°C° 0 mm 7 mps 752 mmHg 79%
    07:00 +16°C° 0.1 mm 7 mps 752 mmHg 79%
    08:00 +17°C° 0.1 mm 8 mps 752 mmHg 79%
    09:00 +18°C° 0.1 mm 8 mps 752 mmHg 79%
    10:00 +18°C° 0.1 mm 8 mps 752 mmHg 79%
    11:00 +20°C° 0.1 mm 8 mps 752 mmHg 80%
    12:00 +21°C° 0.1 mm 8 mps 751 mmHg 81%
    13:00 +21°C° 0.4 mm 8 mps 751 mmHg 82%
    14:00 +21°C° 0.4 mm 7 mps 750 mmHg 82%
    15:00 +21°C° 0.4 mm 6 mps 750 mmHg 82%
    16:00 +20°C° 0.1 mm 6 mps 750 mmHg 86%
    17:00 +20°C° 0.1 mm 5 mps 749 mmHg 90%
    18:00 +19°C° 0.1 mm 4 mps 749 mmHg 94%
    19:00 +19°C° 0.7 mm 5 mps 749 mmHg 95%
    20:00 +17°C° 0.7 mm 5 mps 749 mmHg 95%
    21:00 +17°C° 0.7 mm 6 mps 749 mmHg 95%
    22:00 +16°C° 0.2 mm 5 mps 749 mmHg 94%
    23:00 +16°C° 0.2 mm 5 mps 749 mmHg 93%

    22 September, Sunday

    Time Temperature Precipitation Wind Pressure Humidity
    00:00 +15°C° 0.2 mm 5 mps 749 mmHg 92%
    01:00 +15°C° 0 mm 5 mps 749 mmHg 94%
    02:00 +14°C° 0 mm 5 mps 750 mmHg 95%
    03:00 +14°C° 0 mm 6 mps 750 mmHg 96%
    04:00 +14°C° 0.1 mm 6 mps 750 mmHg 95%
    05:00 +14°C° 0.1 mm 6 mps 750 mmHg 94%
    06:00 +14°C° 0.1 mm 7 mps 750 mmHg 93%
    07:00 +14°C° 0 mm 7 mps 750 mmHg 89%
    08:00 +15°C° 0 mm 8 mps 751 mmHg 84%
    09:00 +16°C° 0 mm 9 mps 751 mmHg 79%
    10:00 +16°C° 0.1 mm 9 mps 751 mmHg 76%
    11:00 +17°C° 0.1 mm 9 mps 751 mmHg 74%
    12:00 +17°C° 0.1 mm 9 mps 752 mmHg 71%
    13:00 +17°C° 0.1 mm 8 mps 752 mmHg 72%
    14:00 +17°C° 0.1 mm 8 mps 752 mmHg 74%
    15:00 +16°C° 0.1 mm 8 mps 753 mmHg 75%
    16:00 +15°C° 0.3 mm 7 mps 753 mmHg 79%
    17:00 +14°C° 0.3 mm 6 mps 754 mmHg 84%
    18:00 +13°C° 0.3 mm 5 mps 754 mmHg 88%
    19:00 +12°C° 0.1 mm 5 mps 754 mmHg 89%
    20:00 +12°C° 0.1 mm 5 mps 755 mmHg 91%
    21:00 +11°C° 0.1 mm 4 mps 755 mmHg 92%
    22:00 +11°C° 0 mm 4 mps 755 mmHg 92%
    23:00 +11°C° 0 mm 4 mps 755 mmHg 92%

    23 September, Monday

    Time Temperature Precipitation Wind Pressure Humidity
    00:00 +10°C° 0 mm 5 mps 755 mmHg 92%
    01:00 +12°C° 0 mm 5 mps 755 mmHg 93%
    02:00 +12°C° 0 mm 5 mps 755 mmHg 93%
    03:00 +13°C° 0 mm 5 mps 755 mmHg 94%
    04:00 +13°C° 0.5 mm 5 mps 754 mmHg 95%
    05:00 +13°C° 0.5 mm 6 mps 754 mmHg 95%
    06:00 +13°C° 0.5 mm 6 mps 753 mmHg 96%
    07:00 +14°C° 0.6 mm 7 mps 753 mmHg 96%
    08:00 +13°C° 0.6 mm 8 mps 752 mmHg 97%
    09:00 +13°C° 0.6 mm 8 mps 752 mmHg 97%
    10:00 +15°C° 0.4 mm 8 mps 752 mmHg 97%
    11:00 +16°C° 0.4 mm 8 mps 752 mmHg 96%
    12:00 +17°C° 0.4 mm 7 mps 752 mmHg 96%
    13:00 +18°C° 0.2 mm 8 mps 753 mmHg 96%
    14:00 +18°C° 0.2 mm 8 mps 753 mmHg 95%
    15:00 +18°C° 0.2 mm 8 mps 753 mmHg 95%
    16:00 +18°C° 0.1 mm 8 mps 753 mmHg 95%
    17:00 +17°C° 0.1 mm 7 mps 754 mmHg 95%
    18:00 +17°C° 0.1 mm 7 mps 754 mmHg 95%
    19:00 +17°C° 0 mm 7 mps 754 mmHg 96%
    20:00 +17°C° 0 mm 6 mps 755 mmHg 97%
    21:00 +17°C° 0 mm 6 mps 755 mmHg 97%
    22:00 +17°C° 0.2 mm 6 mps 755 mmHg 97%
    23:00 +17°C° 0.2 mm 6 mps 754 mmHg 97%
    Show more